Tracking 24266 objects as of 9-Dec-2021
HD Live streaming from Space Station
objects crossing your sky now

DSAT

Track DSAT now!
10-day predictions
DSAT is classified as:


NORAD ID: 42794
Int'l Code: 2017-036AF
Perigee: 512.2 km
Apogee: 686.6 km
Inclination: 97.5 °
Period: 96.5 minutes
Semi major axis: 6970 km
RCS: Unknown
Launch date: June 23, 2017
Source: Italy (IT)
Launch site: SRIHARIKOTA (SRI)

Uplink (MHz):
Downlink (MHz): 437.505
Beacon (MHz): 437.505
Mode: 4800bps GMSK CW
Call sign: U1-DSAT-U1
Status: Inactive

aabbcc
Your satellite tracking list
Your tracking list is empty




NASA's NSSDC Master Catalog

Two Line Element Set (TLE):
1 42794U 17036AF  21342.76723858  .00000791  00000-0  72710-4 0  9999
2 42794  97.4548 353.3542 0125087   4.0057 356.2134 14.91814528243049
Source of the keplerian elements: AMSAT